Regional Weather Roundup
Issued by NWS State College, PA

Home | Current Version | Previous Version | Graphics & Text | Print | Product List | Glossary On
Versions: 1 2 3 4 5 6 7 8 9 10 11 12 13 14 15 16 17 18 19 20 21 22 23 24 25 26 27 28 29 30 31 32 33 34 35 36 37 38 39 40 41 42 43
000
ASUS41 KCTP 200710
RWRCTP

REGIONAL WEATHER ROUNDUP
NATIONAL WEATHER SERVICE STATE COLLEGE PA
200 AM EST TUE FEB 20 2018

Note: "fair" indicates few or no clouds below 12,000 feet with no
significant weather and/or obstructions to visibility.

* = STATION THAT DOES NOT REPORT PRECIPITATION /E.G. RAIN...SNOW...ETC/
    THUNDER OR FOG.

PAZ002>004-007>009-013>016-020>023-029>032-200800-
WESTERN PENNSYLVANIA

CITY           SKY/WX    TMP DP  RH WIND       PRES   REMARKS
ERIE           MOCLDY    64  54  69 S14       30.04S
MEADVILLE      FAIR      60  54  80 S10G21    30.09R
FRANKLIN*      FAIR      59  52  77 S17       30.12S
NEW CASTLE     NOT AVBL
BEAVER COUNTY  NOT AVBL
BUTLER*        FAIR      61  52  72 S13G21    30.14S
PITTSBURGH INT MOCLDY    63  51  65 SW9       30.14S
PITTSBURGH     FAIR      60  49  66 S9        30.16R
INDIANA*       CLEAR     59  52  77 SW9       30.21S
LATROBE        FAIR      61  52  72 S12       30.18F
WASHINGTON CO* FAIR      63  52  67 S9        30.19S
$$

PAZ004>006-010>012-017>019-024>028-033>037-041-042-045-046-049>053-200800-
CENTRAL PENNSYLVANIA

CITY           SKY/WX    TMP DP  RH WIND       PRES   REMARKS
BRADFORD       FAIR      53  51  93 S5        30.14R
DUBOIS         FAIR      56  49  77 S6        30.15S
CLEARFIELD     FOG       36  36 100 CALM      30.19S VSB 3/4
JOHNSTOWN      FAIR      58  50  75 SW15G22   30.20S
ALTOONA        FAIR      42  41  96 W3        30.23S FOG
STATE COLLEGE  FOG       36  36 100 CALM      30.23S VSB 1/2
WILLIAMSPORT   CLOUDY    41  41 100 S3        30.26F FOG
SELINSGROVE    FOG       39  38  96 CALM      30.28F VSB 1/4
FT INDIANTOWN  FOG       40  40 100 CALM      30.30S VSB 1/4
CAPITAL CITY   CLOUDY    44  44 100 CALM      30.30F FOG
HARRISBURG     FOG       43  41  93 CALM      30.29F VSB 1
YORK           CLOUDY    47  47 100 S3        30.29F
$$

PAZ038>040-043-044-047-048-054-055-060>062-067>071-200800-
EASTERN PENNSYLVANIA

CITY           SKY/WX    TMP DP  RH WIND       PRES   REMARKS
SCRANTON       CLOUDY    42  41  96 SW3       30.26F FOG
MOUNT POCONO   CLOUDY    40  40 100 W8        30.25S FOG
ALLENTOWN      FOG       37  35  92 CALM      30.31S VSB 1/4
QUAKERTOWN*    FOG       37  37 100 CALM      30.31F VSB 1/4
READING        FOG       38  38 100 CALM      30.30F VSB 1/4
LANCASTER      FOG       43  43 100 CALM      30.30F VSB 1/4
COATESVILLE    FOG       46 N/A N/A VRB3      30.32F VSB<1/4
POTTSTOWN      FOG       41  41 100 CALM      30.33F VSB 1/4
BLUE BELL      CLOUDY    46  46 100 SW5       30.33F
DOYLESTOWN     FOG       45  45 100 SW7       30.31S VSB 1
WILLOW GROVE   NOT AVBL
NORTH PHILA    FOG       51  50  96 SW8       30.34S VSB 1/2
PHILADELPHIA   FOG       47  47 100 W7        30.34S VSB 1/4
$$




USA.gov is the U.S. government's official web portal to all federal, state and local government web resources and services.